Regional Weather Roundup
Issued by NWS Burlington, VT

Home | Current Version | Previous Version | Graphics & Text | Print | Product List | Glossary On
Versions: 1 2 3 4 5 6 7 8 9 10 11 12 13 14 15 16 17 18 19 20 21 22 23 24 25 26 27 28 29 30 31 32 33 34 35 36 37 38 39 40 41 42 43 44 45 46 47 48 49 50
670
ASUS41 KBTV 200710
RWRBTV
VERMONT REGIONAL WEATHER ROUNDUP
NATIONAL WEATHER SERVICE BURLINGTON VT
200 AM EST MON FEB 20 2017

NOTE: "FAIR" INDICATES FEW OR NO CLOUDS BELOW 12,000 FEET WITH NO
SIGNIFICANT WEATHER AND/OR OBSTRUCTIONS TO VISIBILITY.

* THESE REPORTS ARE NOT UNDER NWS QUALITY CONTROL AND/OR DO NOT
  REPORT WEATHER SUCH AS PRECIPITATION AND FOG.

VTZ001>019-200800-
_____VERMONT_____


CITY           SKY/WX    TMP DP  RH WIND       PRES   REMARKS
BURLINGTON     CLOUDY    36  26  67 N14       30.06R WCI  27
MONTPELIER     CLOUDY    33  25  72 NW9       30.02R WCI  25
MORRISVILLE    CLOUDY    33  22  63 NW9G20    30.04R WCI  25
ST. JOHNSBURY*   N/A     34  25  69 MISG      29.99R
LYNDONVILLE*   CLOUDY    31  24  73 W10G17    29.99R WCI  23
MIDDLEBURY*    FAIR      35  15  44 N12       30.02S WCI  26
RUTLAND*       CLOUDY    36  26  67 W9        30.00R WCI  29
SPRINGFIELD    MOCLDY    39  27  62 N5        29.97R
HIGHGATE*      CLOUDY    32  25  73 N7        30.08R WCI  26
NEWPORT*       CLOUDY    30  23  75 N12G17    30.02R WCI  20
BENNINGTON     PTCLDY    41  27  57 N7        29.98R
SUTTON*          N/A     28 N/A N/A MISG        N/A

_____LAKE CHAMPLAIN_____


CITY           SKY/WX    TMP DP  RH WIND       PRES   REMARKS

$$

NYZ007-026>031-035-052-083-087-200800-
_____NORTHERN NEW YORK_____


CITY           SKY/WX    TMP DP  RH WIND       PRES   REMARKS
PLATTSBURGH    CLOUDY    36  22  56 NW12      30.08R WCI  28
SARANAC LAKE   CLOUDY    29  21  72 N5        30.02R WCI  24
MASSENA        PTCLDY    30  21  69 NW6       30.15R WCI  24
OGDENSBURG*    FAIR      31  24  76 N6        30.14R WCI  25
POTSDAM*       CLEAR     30  25  80 N5        30.13R WCI  25
WATERTOWN      CLEAR     33  26  75 N8        30.13R WCI  26
FT DRUM        CLEAR     32  23  69 N7        30.11R WCI  26
ALBANY         PTCLDY    40  30  67 NW8       30.02R
GLENS FALLS    CLOUDY    40  29  64 NE3       30.02R

$$
NHZ002-005-011-200800-
_____NEW HAMPSHIRE_____


CITY           SKY/WX    TMP DP  RH WIND       PRES   REMARKS
LEBANON        CLOUDY    39  28  64 N13       29.97R WCI  31
KEENE          PTCLDY    40  29  64 VRB3      29.95R
MT WASHINGTON  FOG       10  10 100 NW60        N/A  VSB 0   WCI -18
PLYMOUTH       CLOUDY    39  26  60 NW16      29.94S WCI  30
WHITEFIELD     CLOUDY    34  22  61 NW10      29.97R WCI  26

$$

_____REGIONAL QUEBEC LOCATIONS_____


CITY           SKY/WX    TMP DP  RH WIND       PRES   REMARKS
MONTREAL       MOCLDY    32  18  55 NW9       30.10R WCI  24
QUEBEC CITY    CLOUDY    30  19  64 N3        30.01R
SHERBROOKE     FLURRIES  28  19  69 NW13      30.01R WCI  18

_____REGIONAL ONTARIO LOCATIONS_____


CITY           SKY/WX    TMP DP  RH WIND       PRES   REMARKS
OTTAWA         CLEAR     27  19  74 NW10      30.15R WCI  17

______KEY______
VSB  - VISIBILITY IN MILES
WCI  - WIND CHILL INDEX
HX   - HEAT INDEX
$$
NNNN




USA.gov is the U.S. government's official web portal to all federal, state and local government web resources and services.